Theta_e
318 319 319 321 323 322 313 309 311 307 305 304 308 306 304 303 304 306 309 313 318 319 319 318 316 315 314 313 312 312 311 310 308 308 307 308 307 308 308 308 309 309 310
320 321 322 324 319 316 309 310 307 303 300 301 302 305 302 300 300 302 303 307 312 313 314 314 314 314 313 312 310 309 309 308 307 306 306 306 306 306 307 307 307 308 308
320 323 321 319 317 311 308 309 303 300 298 300 299 302 300 297 295 294 296 297 300 307 309 310 310 310 310 310 309 308 308 307 305 305 305 304 305 305 305 306 306 307 307
323 322 319 317 314 308 308 306 301 296 295 296 296 299 297 296 295 293 292 292 292 292 300 304 305 306 306 307 307 306 306 305 304 303 303 303 303 304 304 304 305 305 306
323 318 317 314 311 306 305 305 298 296 294 294 297 297 295 293 293 292 290 289 288 287 286 297 298 300 302 303 304 304 304 303 303 302 302 302 302 302 303 303 304 305 305
316 315 312 310 306 303 303 302 295 294 295 296 296 295 294 293 292 289 287 287 286 285 284 284 284 289 296 298 300 301 302 302 301 300 300 300 301 301 301 302 303 303 304
309 310 309 304 302 302 301 299 295 294 293 296 294 294 294 293 290 288 287 285 284 284 284 283 282 282 283 293 296 298 299 300 300 299 299 299 299 299 300 301 301 302 303
304 303 303 301 300 300 298 296 295 294 293 295 292 292 287 289 289 289 287 285 284 284 282 282 282 282 281 282 288 294 295 296 297 297 297 297 298 298 299 300 300 300 301
299 299 298 297 296 297 297 297 296 294 292 292 292 295 289 287 287 289 288 286 283 282 281 282 282 281 281 281 283 286 291 293 294 294 295 295 296 297 298 298 299 299 299
295 295 294 294 294 294 295 295 296 295 293 289 291 290 290 291 288 283 287 286 284 282 281 282 282 281 281 280 284 287 288 290 290 291 292 293 294 295 296 296 297 297 297
293 293 293 293 292 292 292 292 292 291 292 290 290 289 288 287 287 286 282 283 285 284 283 281 281 281 281 280 280 284 287 288 288 289 289 290 291 292 293 294 295 295 295
291 292 291 291 290 290 290 289 289 288 288 287 287 287 287 285 283 283 281 281 282 283 282 282 281 281 281 280 283 284 285 286 287 287 287 288 289 289 291 292 292 292 293
289 289 290 289 289 290 289 289 287 287 287 285 285 283 284 283 284 282 281 279 279 281 282 281 281 280 281 280 280 281 283 285 285 286 286 286 287 287 288 289 289 290 290
289 289 289 289 289 288 287 287 286 285 285 284 283 283 281 281 281 281 280 279 276 277 277 279 280 279 279 280 281 280 278 282 283 284 284 284 285 285 285 286 287 287 286
289 288 288 287 287 287 286 286 285 283 283 282 282 281 280 280 280 280 279 279 278 274 275 275 276 278 279 278 279 276 276 280 281 282 282 282 283 283 283 284 283 284 284
287 287 286 286 285 285 285 284 282 283 282 281 281 280 279 279 279 280 279 278 278 276 274 276 276 277 277 278 278 274 276 277 277 279 280 280 281 281 281 281 281 281 282
286 285 285 285 285 284 283 282 282 282 280 280 280 279 278 279 278 277 278 278 277 276 274 275 276 276 275 274 275 274 274 274 273 276 278 279 279 279 278 278 279 279 279
285 285 284 283 283 282 282 281 281 280 279 278 279 278 278 278 276 276 276 276 276 276 275 273 275 275 274 273 273 272 273 274 272 274 277 277 276 276 276 277 277 277 277
284 284 283 282 281 281 281 280 279 279 278 278 278 277 277 277 276 276 275 275 275 276 275 274 274 274 273 273 271 271 271 271 272 274 274 274 274 274 275 275 275 275 274
282 282 282 281 281 280 280 279 279 278 278 278 278 277 276 276 276 276 276 275 276 275 275 274 273 272 271 272 270 268 268 269 268 270 271 271 272 272 272 273 273 272 273
281 281 280 280 280 280 279 279 278 278 277 277 277 277 277 278 279 278 276 276 276 275 274 272 271 270 269 269 268 268 267 267 267 267 266 266 266 266 266 269 269 271 274
280 280 279 279 279 280 283 282 279 278 277 277 276 277 277 277 277 278 278 279 278 275 273 271 270 268 269 268 269 268 267 265 262 266 265 263 265 264 265 265 270 273 274
279 279 279 279 279 280 283 282 280 278 277 277 277 276 276 276 276 276 278 278 276 277 276 272 270 270 269 270 269 268 266 265 264 265 263 260 263 262 264 266 270 272 273
279 279 279 279 279 281 283 282 280 278 277 277 276 276 275 275 276 276 275 274 273 272 272 273 272 271 271 270 269 268 265 262 260 261 262 255 260 260 263 264 269 271 272
278 278 279 279 279 279 282 281 279 277 277 276 276 276 275 275 278 278 274 272 271 271 273 274 273 272 272 271 270 265 255 252 256 258 262 260 260 260 261 262 264 269 270
277 277 277 277 278 278 281 281 279 277 275 276 276 276 278 277 277 278 274 270 268 269 268 266 265 265 266 265 267 264 262 251 251 251 258 257 257 259 255 257 261 262 263
Wind_Speed
7 5 4 4 4 4 5 4 6 6 7 8 7 9 8 7 9 6 6 16 16 16 16 15 14 15 14 14 15 15 16 16 16 16 16 17 17 18 18 18 19 19 19
7 6 5 4 4 5 5 6 7 6 6 7 8 7 8 7 9 9 6 9 18 17 17 16 15 15 14 14 13 14 14 15 16 16 17 18 18 18 19 18 19 20 20
8 8 6 5 5 5 8 8 8 7 7 7 8 7 7 8 8 8 7 6 8 18 17 17 16 16 15 15 15 14 15 15 16 16 17 17 18 19 19 20 20 19 20
10 8 8 7 7 6 7 7 7 7 6 6 6 5 6 7 8 8 7 6 6 6 12 17 17 16 17 16 15 15 15 15 16 16 17 17 18 18 20 19 20 20 20
9 8 7 7 8 6 7 8 4 6 6 5 6 6 6 6 7 7 8 8 9 7 5 15 17 17 17 16 15 15 16 15 16 16 17 17 18 19 20 20 21 21 21
7 8 7 8 6 8 6 7 8 4 6 8 8 7 5 5 6 6 7 7 8 8 6 7 6 7 16 16 16 15 15 15 16 17 16 17 17 19 19 20 21 21 22
7 7 7 7 5 7 9 10 9 11 5 8 7 6 6 6 6 5 5 6 8 7 7 6 5 4 5 16 17 16 15 16 16 17 17 17 18 18 20 20 21 22 22
6 7 7 6 6 7 8 8 11 5 4 4 4 5 4 3 3 3 3 5 6 5 6 5 6 6 5 4 10 16 15 15 15 18 17 17 18 18 19 21 22 23 24
7 8 8 7 6 5 6 6 6 6 7 3 5 1 4 3 4 2 2 3 5 4 4 5 5 5 4 4 7 9 15 15 15 17 16 17 18 19 20 22 23 24 24
9 8 8 8 7 5 6 5 4 5 7 6 4 6 5 4 4 3 1 1 3 5 4 4 4 4 4 3 8 12 14 14 14 15 16 16 18 19 22 23 24 24 25
9 8 9 10 9 7 7 8 9 8 6 4 3 1 6 4 3 3 4 3 2 2 3 3 3 3 3 3 1 7 13 14 13 15 16 16 19 22 23 23 24 24 25
7 8 10 10 10 9 10 9 10 11 9 7 6 5 2 3 1 2 3 3 4 2 2 3 3 2 2 2 5 8 11 14 14 16 17 18 21 23 24 24 25 26 23
7 7 11 10 9 9 10 11 12 10 8 7 5 4 5 3 2 2 2 2 3 3 2 2 2 1 2 3 3 5 10 13 16 17 17 19 21 22 22 24 24 23 25
9 10 11 11 12 11 11 11 8 8 8 8 8 4 3 3 4 2 2 3 2 1 1 3 2 2 3 3 5 7 5 12 16 17 18 21 21 22 23 23 23 25 26
11 12 12 12 11 11 9 10 8 9 8 6 5 5 5 4 6 5 5 3 1 3 2 0 1 3 3 3 5 4 4 10 14 17 20 19 20 21 21 22 24 24 24
16 13 13 12 10 9 10 10 9 6 7 5 5 8 6 4 5 4 4 4 4 2 1 1 0 2 3 3 5 4 4 7 10 17 17 18 19 19 19 21 22 22 23
16 13 12 11 11 11 10 8 7 7 8 8 6 7 7 5 4 4 4 4 3 2 1 1 1 2 1 3 4 4 5 5 5 16 17 19 18 17 19 21 21 21 22
15 14 13 12 10 10 7 8 9 7 8 7 7 6 5 5 6 6 4 4 3 3 1 3 2 1 1 2 2 4 6 7 8 13 18 17 16 17 21 21 20 20 21
14 15 14 11 10 8 9 9 9 8 7 7 6 6 4 6 5 4 4 3 2 2 1 2 2 1 2 2 3 4 7 6 8 15 17 14 13 20 20 20 19 21 21
14 11 11 10 9 10 9 9 9 8 7 6 6 6 5 5 5 3 3 2 2 2 2 1 2 2 3 2 3 7 7 6 8 9 10 10 17 17 19 19 20 20 20
13 10 12 11 10 9 6 9 8 8 7 6 6 6 4 4 5 4 2 2 2 1 1 2 3 3 5 5 7 6 8 8 7 6 2 7 7 7 8 13 16 18 22
12 12 11 12 11 7 15 15 10 6 6 6 5 4 4 4 3 5 6 8 3 3 4 4 3 5 7 6 6 7 8 8 7 1 8 12 8 6 7 6 18 23 24
11 11 10 11 11 10 16 15 13 6 6 5 4 4 4 3 2 2 5 5 5 7 8 6 6 6 7 7 8 9 8 7 8 8 10 11 2 6 6 8 21 26 24
10 9 10 10 10 9 15 14 12 6 5 4 4 4 4 3 3 3 1 1 2 3 4 4 4 6 9 10 8 8 6 5 5 5 3 7 2 9 7 8 22 22 22
10 9 8 8 9 8 13 12 8 4 6 4 4 3 4 2 4 2 1 1 4 6 6 7 11 14 16 17 14 5 3 4 7 3 3 4 4 13 9 9 7 18 26
11 8 9 7 8 8 12 11 7 4 5 4 4 5 4 2 8 9 3 1 6 4 3 4 5 7 9 9 13 5 3 1 2 5 3 3 5 5 10 3 2 11 10
Wind_Direction
182 176 176 173 170 151 138 126 109 96 88 84 87 95 85 80 79 66 54 50 64 72 74 71 69 68 62 59 58 53 48 41 34 32 27 23 18 12 5 10 5 2 1
182 175 174 175 145 149 133 127 119 107 91 95 88 95 89 81 79 76 63 57 68 73 74 73 68 65 63 56 51 45 42 40 33 26 22 21 14 11 4 4 1 355 359
177 167 163 161 158 140 127 112 101 99 95 93 92 96 97 93 87 80 70 57 56 64 70 69 66 63 58 52 48 41 37 33 29 23 18 16 9 8 1 2 356 355 353
169 160 162 162 145 138 133 125 122 101 95 101 102 95 95 97 101 93 85 77 62 54 60 71 66 63 55 50 44 40 36 28 24 21 16 11 7 4 1 356 353 350 348
162 159 162 144 141 137 132 134 107 117 117 104 108 104 102 103 104 102 94 85 80 62 44 72 66 61 56 49 43 37 34 30 24 19 12 9 5 2 358 354 350 351 348
145 151 143 138 141 137 115 114 119 103 126 126 113 98 93 96 102 100 99 94 86 83 72 65 49 44 58 46 42 35 30 27 24 17 10 6 359 0 358 356 349 350 347
135 143 128 126 127 144 140 133 119 125 112 129 115 96 68 73 82 95 107 106 98 94 89 83 73 61 40 44 34 33 28 25 21 13 10 2 357 354 350 355 347 350 345
114 116 129 128 122 124 129 139 146 133 116 165 125 121 145 115 77 98 110 109 109 105 96 93 93 80 60 28 35 29 26 22 18 13 6 359 353 353 354 347 349 346 344
94 102 109 109 108 108 132 130 137 130 149 74 79 122 145 141 123 114 100 103 128 111 102 100 96 92 87 58 37 22 23 20 16 9 2 356 351 350 351 351 343 344 344
88 92 102 98 94 96 100 99 99 108 119 117 76 45 63 116 155 154 129 161 121 128 120 100 96 86 81 58 38 26 23 18 11 5 358 352 349 351 345 345 342 343 340
83 78 95 96 94 92 86 93 87 81 81 89 81 134 52 33 61 133 156 142 89 94 101 115 94 95 76 51 71 17 19 10 5 2 350 350 350 348 341 338 337 342 335
86 90 90 92 91 92 92 88 81 78 84 87 80 72 136 88 305 136 123 124 142 145 118 102 110 90 64 19 27 27 14 0 358 351 348 353 348 343 334 339 334 332 337
106 106 103 102 98 95 94 95 88 86 82 85 81 70 62 91 191 186 103 125 148 150 140 74 72 70 44 7 356 49 5 355 349 346 348 346 340 333 337 337 332 339 335
117 109 101 98 95 94 90 88 90 92 86 70 75 73 89 48 50 33 100 136 89 123 126 147 169 38 18 1 41 33 359 351 342 345 343 339 334 336 338 332 337 340 334
114 108 103 98 91 88 90 101 87 89 98 107 97 85 76 54 53 47 46 37 111 163 191 128 146 354 7 52 43 14 338 332 344 342 337 335 334 336 334 342 339 334 330
111 108 103 100 96 94 84 84 97 106 102 88 92 92 80 67 64 54 57 45 41 71 134 91 164 349 43 47 7 336 322 347 336 337 338 335 337 338 341 338 332 329 330
109 106 106 106 106 97 102 103 111 101 96 95 84 91 85 73 70 63 53 46 47 45 65 312 321 4 84 0 337 334 337 308 341 332 335 336 337 337 338 330 329 326 328
108 110 106 103 108 107 117 117 104 104 109 107 100 92 94 96 70 56 50 53 42 51 15 284 284 305 296 322 299 298 333 335 329 328 330 328 334 339 331 328 324 323 325
110 110 113 120 119 124 109 103 108 105 102 95 87 89 95 85 74 68 57 44 29 8 352 285 286 301 273 286 295 314 319 323 319 322 324 320 329 329 324 321 319 318 319
106 106 114 112 116 108 108 108 108 106 99 97 96 87 78 84 89 82 59 11 347 313 315 306 285 290 278 292 302 317 317 314 313 310 310 306 324 314 313 311 315 311 306
111 124 114 111 106 105 117 116 110 106 109 103 88 94 92 107 86 55 50 339 8 12 320 317 314 306 304 318 316 318 304 309 306 290 344 310 306 293 282 295 300 302 301
114 117 115 114 111 112 121 118 113 123 111 103 111 104 105 101 53 23 5 345 337 335 5 338 315 305 309 307 304 307 311 323 326 54 332 302 284 266 279 275 291 307 308
116 114 108 103 102 109 118 120 115 97 102 109 114 120 111 75 21 4 2 43 34 4 352 342 324 311 315 321 316 318 322 311 297 308 313 293 201 269 270 285 299 304 305
105 107 103 104 105 112 117 109 111 108 106 103 101 99 99 61 355 92 62 8 33 346 318 321 319 332 327 321 326 319 337 307 294 274 278 278 346 297 297 290 287 293 299
112 100 99 109 105 99 111 112 111 115 107 93 87 87 83 71 342 80 153 345 312 297 314 342 347 333 328 328 318 346 332 10 314 291 273 269 333 314 301 284 261 281 305
100 109 103 87 88 96 105 113 107 97 87 72 62 58 45 60 356 333 45 40 302 312 30 344 314 318 325 313 328 334 339 292 276 320 278 301 317 320 315 244 315 294 289